TIANMU-1 19
Last updated on Mon Jun 22 2026 00:02:46 GMT+0000 (Coordinated Universal Time)
1 58660U 23208A 26172.40296416 .00006532 00000+0 21646-3 0 9997
2 58660 97.4505 288.7245 0003546 308.1636 51.9285 15.31627133137977
Next 0 passes for location: London (51.5072 / 0.1276)
No passes found over London.